Hourly Weather Roundup
Issued by NWS Central Illinois

Home | Current Version | Previous Version | Graphics & Text | Print | Product List | Glossary On
Versions: 1 2 3 4 5 6 7 8 9 10 11 12 13 14 15 16 17 18 19 20 21 22 23 24 25 26 27 28 29 30 31 32 33 34 35 36 37 38 39 40 41 42 43 44 45 46 47 48 49 50
000
NZUS43 KILX 231510
HWRILX

Area Weather Roundup
National Weather Service Lincoln IL
1000 AM CDT SAT SEP 23 2017

NOTE:  "FAIR" indicates few or no clouds below 12,000 feet, with
       no sigificant weather and/or obstructions to visibility.


CITY           SKY/WX    TMP DP  RH WIND       PRES   REMARKS
Bloomington    SUNNY     82  68  62 SW7       30.12S HX  85
Champaign      SUNNY     85  65  51 SW6       30.12S HX  86
Danville       SUNNY     82  68  63 CALM      30.10S HX  85
Decatur        SUNNY     83  66  56 S5        30.11S HX  85
Effingham      SUNNY     83  68  59 SE5       30.12S HX  86
Flora          SUNNY     83  69  63 E3        30.11R HX  86
Galesburg      SUNNY     82  67  60 S5        30.10S HX  84
Jacksonville   SUNNY     84  66  53 CALM      30.09S HX  86
Lacon          SUNNY     83  67  60 CALM      30.08S HX  85
Lawrenceville  SUNNY     80  71  74 E3        30.11S HX  84
Litchfield     SUNNY     82  68  63 SE5       30.10S HX  84
$$


CITY           SKY/WX    TMP DP  RH WIND       PRES   REMARKS
Lincoln        SUNNY     82  69  64 CALM      30.10S HX  85
Macomb         SUNNY     82  66  58 CALM      30.11R HX  83
Mattoon        SUNNY     83  68  60 S5        30.11R HX  86
Mt Carmel AP   SUNNY     81  68  65 SE3       30.11R HX  83
Olney-Noble AP SUNNY     82  69  64 E3        30.11S HX  86
Paris AP       SUNNY     83  71  68 CALM      30.13S HX  87
Peoria         SUNNY     82  67  60 SW3       30.09S HX  84
Pontiac        SUNNY     83  69  62 CALM      30.11S HX  87
Rantoul        SUNNY     84  71  63 CALM      30.12S HX  89
Robinson       SUNNY     81  68  63 SE3       30.12S HX  84
Springfield    SUNNY     85  68  56 S3        30.10R HX  88
Taylorville    MOSUNNY   83  68  60 CALM      30.10S HX  86
$$

...REGIONAL REPORTS...


CITY           SKY/WX    TMP DP  RH WIND       PRES   REMARKS
Chicago O`Hare SUNNY     85  65  51 S3        30.10S HX  86
Kankakee       SUNNY     81  69  67 CALM      30.12S HX  84
Moline         SUNNY     82  66  58 SW3       30.07S HX  84
Mount Sterling SUNNY     80  68  65 CALM      30.08S HX  82
Mount Vernon     N/A     83  69  62 E5        30.10R HX  86
Pittsfield     SUNNY     83  67  59 CALM      30.10R HX  85
Quincy         SUNNY     83  66  56 CALM      30.08R HX  85
Rockford       SUNNY     81  66  60 SW3       30.11R HX  83
$$


CITY           SKY/WX    TMP DP  RH WIND       PRES   REMARKS
Burlington     SUNNY     81  68  64 S6        30.07R HX  84
Cedar Rapids   SUNNY     80  66  62 S8        30.06R HX  82
Des Moines     MOSUNNY   80  69  69 S6        30.03R HX  83
Kirksville     SUNNY     81  69  67 SW3       30.08S HX  84
Ottumwa        SUNNY     80  67  64 CALM      30.06R HX  82
St Louis       SUNNY     84  67  56 CALM      30.09R HX  86
$$


CITY           SKY/WX    TMP DP  RH WIND       PRES   REMARKS
Terre Haute    SUNNY     83  66  56 CALM      30.13R HX  85
Evansville     SUNNY     80  68  66 CALM      30.11R HX  83
Indianapolis   MOSUNNY   84  67  56 CALM      30.14R HX  86
Lafayette      SUNNY     79  70  74 CALM      30.12S HX  82
Madison        MOSUNNY   79  66  64 S6        30.09R HX  81
Milwaukee      MOSUNNY   85  67  54 SW5       30.10R HX  87
$$





USA.gov is the U.S. government's official web portal to all federal, state and local government web resources and services.